[[{"header":{"parameterUnit":"m.s-1","parameterCategory":1,"la1":30.2991,"la2":30.254,"lo1":-89.0895,"lo2":-89.0444,"dy":0.0017,"dx":0.0017,"nx":28,"ny":28,"refTime":"2024-02-09T09:00:00:Z","depth":0,"parameterNumber":2,"parameterNumberName":"U-component_of_WINDS"},"data":[0,0,0,0,0,0,0,0,0,0,0,0,0,0,0,0,0,0,0,0,0,0,0,0,0,0,0,0,0,0,0,0,0,0,0,0,0,0,0,0,0,0,0,0,0,0,0,0,0,0,0,0,0,0,0,0,0,0,-3.1036,-3.1038,0,-3.1159,-3.1161,-3.1162,-3.1159,-3.1158,-3.1156,-3.1155,-3.1281,-3.1286,-3.1291,0,0,0,0,0,0,0,0,0,0,0,0,0,-3.0801,-3.0805,-3.1036,-3.1038,-3.1039,-3.1159,-3.1161,-3.1162,-3.116,-3.1158,-3.1156,-3.1154,-3.128,-3.1285,-3.1291,0,0,0,0,0,0,0,0,0,0,0,0,0,-3.0912,-3.0807,-3.1036,-3.1052,-3.1055,-3.1159,-3.1161,-3.1163,-3.116,-3.1158,-3.1155,-3.1153,-3.1278,-3.1285,-3.1292,-3.1388,0,0,-3.1315,-3.1318,0,0,0,0,0,0,0,0,-3.0905,-3.092,-3.1048,-3.1051,-3.1055,-3.1141,-3.1124,-3.1238,-3.1161,-3.112,-3.1154,-3.1152,-3.1237,-3.1247,-3.1276,-3.1394,-3.1399,-3.1315,-3.132,-3.1323,-3.1325,0,0,0,0,0,0,0,-3.0898,-3.0915,-3.1085,-3.105,-3.1054,-3.1054,-3.1067,-3.1146,-3.1191,-3.1124,-3.1124,-3.1138,-3.1238,-3.1269,-3.1279,-3.1401,-3.1315,-3.1322,-3.1326,-3.1329,-3.1605,-3.1608,0,0,0,0,0,0,-3.0886,-3.0909,-3.1081,-3.1089,-3.0972,-3.1061,-3.1075,-3.1116,-3.119,-3.1199,-3.114,-3.1138,-3.1257,-3.127,-3.1283,-3.1401,-3.1323,-3.133,-3.1334,-3.1602,-3.1606,-3.1609,0,0,0,0,0,0,-3.0881,-3.0902,-3.1076,-3.0999,-3.1021,-3.1067,-3.1113,-3.112,-3.1151,-3.1203,-3.1211,-3.1163,-3.1256,-3.1273,-3.1362,-3.1405,-3.1333,-3.134,-3.1599,-3.1603,-3.1607,-3.1635,0,0,0,0,0,0,-3.0875,-3.09,-3.0936,-3.1,-3.1025,-3.1152,-3.1116,-3.1124,-3.1163,-3.1161,-3.1227,-3.1235,-3.1255,-3.1351,-3.1369,-3.1414,-3.1346,-3.1595,-3.1601,-3.1606,-3.1631,-3.164,-3.1648,0,0,0,0,0,-3.0866,-3.0939,-3.0938,-3.0959,-3.1071,-3.1154,-3.1169,-3.1191,-3.1167,-3.1204,-3.1238,-3.1233,-3.1398,-3.136,-3.1381,-3.1428,-3.1592,-3.1599,-3.1605,-3.1627,-3.1638,-3.1648,0,0,0,0,0,0,-3.0879,-3.0948,-3.0947,-3.1043,-3.1093,-3.1154,-3.1201,-3.1202,-3.126,-3.1256,-3.1281,-3.1295,-3.1385,-3.1416,-3.1373,-3.1525,-3.1492,-3.1503,-3.1501,-3.1513,-3.1521,-3.1511,-3.1352,0,0,0,0,0,-3.0893,-3.0955,-3.1012,-3.109,-3.1116,-3.1154,-3.1191,-3.1204,-3.1257,-3.1278,-3.1318,-3.137,-3.1434,-3.1475,-3.1537,-3.1636,-3.165,-3.1679,-3.1687,-3.1694,-3.1703,-3.1758,-3.1772,-3.163,-3.163,-3.163,0,0,-3.0923,-3.0968,-3.1005,-3.1094,-3.1134,-3.1198,-3.1172,-3.124,-3.1288,-3.1289,-3.1375,-3.1407,-3.1467,-3.1561,-3.1605,-3.159,-3.1746,-3.1703,-3.1708,-3.1713,-3.1766,-3.178,-3.1792,-3.1634,-3.1634,-3.1633,0,0,-3.1009,-3.1049,-3.1119,-3.1161,-3.1222,-3.1248,-3.1265,-3.1327,-3.1347,-3.1435,-3.1437,-3.1495,-3.1603,-3.1646,-3.1682,-3.1787,-3.1785,-3.1806,-3.1851,-3.1905,-3.1916,-3.1926,-3.1963,-3.1976,-3.1815,-3.1815,-3.1815,0,-3.1037,-3.1133,-3.1155,-3.1224,-3.1264,-3.1268,-3.134,-3.1379,-3.1458,-3.1485,-3.1467,-3.1605,-3.1645,-3.175,-3.1776,-3.1805,-3.1826,-3.1798,-3.1912,-3.1923,-3.1932,-3.1968,-3.1982,-3.1818,-3.1817,-3.1817,-3.1817,0,-3.1165,-3.1232,-3.1281,-3.1357,-3.1402,-3.1472,-3.1506,-3.155,-3.1559,-3.1587,-3.1676,-3.1726,-3.1797,-3.1824,-3.1833,-3.1931,-3.192,-3.1907,-3.1874,-3.1948,-3.1982,-3.1996,-3.1821,-3.182,-3.1819,-3.1819,0,0,-3.126,-3.1349,-3.1367,-3.1402,-3.1471,-3.1523,-3.1595,-3.1665,-3.1701,-3.1757,-3.1817,-3.191,-3.1899,-3.194,-3.1955,-3.2002,-3.2082,-3.1984,-3.1986,-3.2,-3.2193,-3.2201,-3.2217,-3.2082,-3.2085,-3.2087,-3.2188,0,-3.1353,-3.1478,-3.1502,-3.1611,-3.1673,-3.1679,-3.1741,-3.1791,-3.1819,-3.1877,-3.1909,-3.1974,-3.1955,-3.198,-3.2027,-3.2062,-3.2121,-3.2056,-3.2139,-3.2141,-3.2122,-3.2234,-3.2243,-3.2335,-3.2201,-3.2204,-3.2205,0,-3.1477,-3.1535,-3.1651,-3.1713,-3.174,-3.1795,-3.1862,-3.1917,-3.1974,-3.1991,-3.2038,-3.2048,-3.2123,-3.2088,-3.2192,-3.2147,-3.2183,-3.2206,-3.221,-3.2217,-3.2177,-3.2244,-3.2365,-3.2379,-3.2227,-3.2225,-3.2223,0,-3.1534,-3.1642,-3.1725,-3.1755,-3.1829,-3.1868,-3.1901,-3.1956,-3.1997,-3.2056,-3.2083,-3.2151,-3.2187,-3.2239,-3.2268,-3.224,-3.237,-3.2337,-3.2387,-3.2386,-3.2412,-3.241,-3.254,-3.2437,-3.2437,-3.2437,-3.2437,0,-3.1634,-3.1705,-3.1751,-3.1802,-3.1882,-3.1909,-3.1987,-3.202,-3.2069,-3.2127,-3.2137,-3.2192,-3.2227,-3.2286,-3.231,-3.2392,-3.2409,-3.2426,-3.2431,-3.2424,-3.2422,-3.2446,-3.244,-3.2441,-3.244,-3.2439,-3.2439,0,-3.171,-3.1745,-3.1836,-3.19,-3.1918,-3.1973,-3.2028,-3.2079,-3.2108,-3.2182,-3.22,-3.2247,-3.2318,-3.2352,-3.244,-3.2456,-3.255,-3.2551,-3.253,-3.2531,-3.2579,-3.2574,-3.2728,-3.275,-3.2634,-3.2635,-3.2636,0,-3.1771,-3.1825,-3.1896,-3.1935,-3.1969,-3.2033,-3.2075,-3.2105,-3.2149,-3.2219,-3.2261,-3.2333,-3.2391,-3.2505,-3.2547,-3.2615,-3.2618,-3.2667,-3.2628,-3.262,-3.2618,-3.2613,-3.2619,-3.2674,-3.2675,-3.2676,-3.2676,0,-3.1875,-3.189,-3.195,-3.2017,-3.2068,-3.2122,-3.2175,-3.2207,-3.2246,-3.2295,-3.2367,-3.2413,-3.2504,-3.2575,-3.2646,-3.2681,-3.2686,-3.2689,-3.2704,-3.2697,-3.2682,-3.269,-3.2548,-3.2685,-3.2684,-3.2683,-3.2683,-3.2683,-3.1945,-3.1994,-3.2051,-3.2118,-3.2162,-3.2212,-3.2262,-3.2299,-3.236,-3.2436,-3.245,-3.2528,-3.2586,-3.2682,-3.2719,-3.2781,-3.277,-3.2791,-3.2797,-3.2801,-3.2804,-3.2674,-3.2794,-3.2794,-3.2794,-3.2794,-3.2794,0,-3.2049,-3.2087,-3.2148,-3.2223,-3.2276,-3.2276,-3.2336,-3.2381,-3.2449,-3.2502,-3.256,-3.2644,-3.2714,-3.2762,-3.2833,-3.2874,-3.2877,-3.2891,-3.2888,-3.2896,-3.281,-3.2789,-3.2887,-3.2887,-3.2887,-3.2887,-3.2887,-3.2887,-3.2109,-3.2192,-3.2214,-3.2318,-3.2356,-3.2432,-3.2466,-3.2512,-3.2555,-3.2649,-3.2707,-3.2738,-3.279,-3.2865,-3.2929,-3.2942,-3.2967,-3.2981,-3.2993,-3.2912,-3.2902,-3.2892,-3.2873,-3.2987,-3.2987,-3.3074,-3.3075,-3.3076]},{"header":{"parameterUnit":"m.s-1","parameterCategory":1,"la1":30.2991,"la2":30.254,"lo1":-89.0895,"lo2":-89.0444,"dy":0.0017,"dx":0.0017,"nx":28,"ny":28,"refTime":"2024-02-09T09:00:00:Z","depth":0,"parameterNumber":3,"parameterNumberName":"V-component_of_WINDS"},"data":[0,0,0,0,0,0,0,0,0,0,0,0,0,0,0,0,0,0,0,0,0,0,0,0,0,0,0,0,0,0,0,0,0,0,0,0,0,0,0,0,0,0,0,0,0,0,0,0,0,0,0,0,0,0,0,0,0,0,1.4294,1.4295,0,1.4387,1.4388,1.4389,1.4447,1.4447,1.4448,1.4448,1.4542,1.4544,1.4546,0,0,0,0,0,0,0,0,0,0,0,0,0,1.4167,1.4169,1.4294,1.4295,1.4296,1.4387,1.4388,1.4389,1.4447,1.4447,1.4448,1.4448,1.4541,1.4544,1.4547,0,0,0,0,0,0,0,0,0,0,0,0,0,1.4237,1.4169,1.4293,1.4336,1.434,1.4386,1.4388,1.4389,1.4447,1.4447,1.4448,1.4448,1.454,1.4544,1.4547,1.4558,0,0,1.4557,1.4558,0,0,0,0,0,0,0,0,1.4233,1.4242,1.4328,1.4333,1.4338,1.4406,1.4378,1.4446,1.4447,1.4406,1.4448,1.4448,1.4496,1.4503,1.452,1.4562,1.4566,1.4557,1.4559,1.4561,1.4562,0,0,0,0,0,0,0,1.4228,1.4238,1.433,1.433,1.4336,1.435,1.4361,1.4391,1.4447,1.441,1.4414,1.4425,1.4499,1.4516,1.4522,1.4567,1.4557,1.456,1.4562,1.4563,1.4626,1.4625,0,0,0,0,0,0,1.4216,1.4233,1.4328,1.4333,1.4286,1.4352,1.4364,1.4384,1.4447,1.4457,1.4424,1.4427,1.451,1.4518,1.4526,1.4544,1.4561,1.4564,1.4566,1.4626,1.4626,1.4625,0,0,0,0,0,0,1.4213,1.4224,1.4324,1.4285,1.4298,1.4354,1.4375,1.4385,1.4402,1.4458,1.4468,1.4431,1.4511,1.4521,1.455,1.4548,1.4565,1.4568,1.4627,1.4626,1.4626,1.4579,0,0,0,0,0,0,1.421,1.4223,1.4227,1.4284,1.43,1.4346,1.4375,1.4387,1.4408,1.4413,1.4467,1.4477,1.4512,1.4545,1.4553,1.4553,1.4571,1.4627,1.4626,1.4626,1.4581,1.4577,1.4574,0,0,0,0,0,1.4205,1.421,1.4227,1.4238,1.4307,1.4346,1.4355,1.4396,1.4408,1.4413,1.4449,1.4475,1.4547,1.4547,1.4557,1.4558,1.4627,1.4626,1.4626,1.4583,1.4578,1.4574,0,0,0,0,0,0,1.415,1.4218,1.4238,1.4261,1.4297,1.4355,1.4363,1.4389,1.4422,1.4425,1.4474,1.4486,1.451,1.4537,1.4536,1.4573,1.459,1.4591,1.4554,1.455,1.4546,1.4539,1.4574,0,0,0,0,0,1.4141,1.4166,1.4224,1.424,1.4257,1.4307,1.4325,1.4354,1.4393,1.4408,1.4446,1.4483,1.4514,1.4534,1.4565,1.4585,1.4599,1.4591,1.4587,1.4584,1.4584,1.4599,1.4596,1.4623,1.4623,1.4623,0,0,1.4121,1.4162,1.4175,1.423,1.4261,1.4287,1.4319,1.4345,1.4365,1.4412,1.4442,1.4471,1.4516,1.4541,1.4554,1.4564,1.458,1.4583,1.458,1.4582,1.4598,1.4595,1.4593,1.4622,1.4623,1.4623,0,0,1.41,1.4133,1.415,1.4181,1.4229,1.4262,1.4266,1.4321,1.4342,1.4373,1.441,1.4435,1.4487,1.4517,1.454,1.4533,1.4558,1.4541,1.4522,1.4535,1.4533,1.4532,1.453,1.4528,1.4542,1.4542,1.4542,0,1.407,1.4111,1.4155,1.418,1.4203,1.4248,1.4266,1.4294,1.4349,1.4364,1.4375,1.4443,1.4476,1.451,1.4508,1.4525,1.4532,1.4535,1.453,1.4529,1.4528,1.4527,1.4526,1.4539,1.454,1.454,1.454,0,1.4072,1.41,1.4108,1.4161,1.4186,1.4207,1.4255,1.4274,1.4301,1.4334,1.4366,1.4407,1.4449,1.4459,1.4485,1.4497,1.4502,1.4521,1.4539,1.4522,1.4522,1.4522,1.4536,1.4537,1.4537,1.4538,0,0,1.4017,1.4096,1.4099,1.4124,1.4181,1.4203,1.4227,1.4268,1.4285,1.4321,1.4343,1.4387,1.4406,1.4431,1.4461,1.4473,1.4466,1.4491,1.4493,1.4485,1.4483,1.4468,1.4467,1.4484,1.4484,1.4484,1.4479,0,1.4005,1.405,1.4091,1.4121,1.4148,1.4192,1.4213,1.4251,1.4282,1.431,1.4345,1.4376,1.4397,1.4413,1.4427,1.4464,1.4466,1.4465,1.4504,1.4505,1.4492,1.4467,1.4451,1.4445,1.448,1.448,1.448,0,1.3996,1.4032,1.4065,1.4121,1.4133,1.4151,1.4194,1.4219,1.4263,1.4285,1.4315,1.4347,1.4375,1.4391,1.4431,1.4429,1.4448,1.4469,1.4469,1.4475,1.4491,1.4472,1.4444,1.4443,1.448,1.448,1.448,0,1.3953,1.401,1.4038,1.4058,1.4123,1.4135,1.4163,1.4207,1.423,1.4267,1.4283,1.4322,1.4344,1.4374,1.4416,1.4424,1.4452,1.4471,1.4471,1.447,1.4475,1.4474,1.445,1.4486,1.4486,1.4486,1.4486,0,1.3935,1.3953,1.402,1.4037,1.4059,1.4107,1.4128,1.416,1.42,1.4224,1.4264,1.4286,1.4341,1.4369,1.4403,1.4431,1.444,1.4459,1.4468,1.4456,1.4453,1.4469,1.447,1.4486,1.4486,1.4486,1.4486,0,1.3891,1.3936,1.3969,1.4029,1.4045,1.4059,1.411,1.4129,1.4163,1.4194,1.4204,1.4258,1.4294,1.4339,1.4389,1.4412,1.4437,1.445,1.4422,1.4427,1.4425,1.4424,1.441,1.4411,1.4446,1.4446,1.4445,0,1.3876,1.3892,1.3954,1.3974,1.4,1.4031,1.4055,1.4103,1.4127,1.4179,1.4191,1.4231,1.4264,1.432,1.4364,1.4403,1.4417,1.441,1.4423,1.4411,1.4418,1.4417,1.4419,1.4406,1.4405,1.4405,1.4404,0,1.3846,1.3868,1.3901,1.3942,1.397,1.4005,1.4041,1.4055,1.4111,1.4135,1.4173,1.42,1.4252,1.4291,1.4336,1.4365,1.4394,1.44,1.4402,1.439,1.4373,1.4383,1.4412,1.44,1.44,1.4401,1.4401,1.4401,1.3817,1.3833,1.388,1.3916,1.3949,1.3982,1.4003,1.4041,1.4073,1.412,1.4147,1.4184,1.4229,1.4293,1.4321,1.4351,1.4362,1.4365,1.4365,1.4365,1.4362,1.4369,1.4359,1.4359,1.436,1.436,1.436,0,1.3789,1.3821,1.3854,1.3905,1.3933,1.3959,1.4001,1.4024,1.4056,1.4096,1.4129,1.4173,1.4211,1.4259,1.4301,1.4316,1.433,1.4325,1.4324,1.4331,1.435,1.4344,1.4313,1.4313,1.4313,1.4313,1.4313,1.4313,1.3778,1.3807,1.3835,1.3882,1.3915,1.3952,1.3974,1.4005,1.4038,1.4085,1.4118,1.4149,1.4192,1.4238,1.4274,1.4287,1.4301,1.4292,1.4308,1.4325,1.4329,1.4333,1.4328,1.4294,1.4294,1.4287,1.4287,1.4287]}]]